Location: *
(43.1997°N, 1.9503°E)
Time: 08:27:01
(UTC+00:00)

Daily predictions for brighter satellites

Satellite Brightness Start Highest point End
(mag) Time Altitude Azimuth Time Altitude Azimuth Time Altitude Azimuth
Cosmos 1766 Rocket 4.4 19:58:58 10° SSE 20:02:46 31° E 20:06:35 10° NNE
CZ-2C R/B 3.9 20:00:12 10° NE 20:04:04 21° E 20:07:53 10° SE
Gbstr 26 Del rocket 2.7 20:00:14 10° SW 20:04:28 69° SE 20:08:14 10° ENE
H-2A R/B 2.3 19:59:38 10° SSE 20:05:06 88° WSW 20:10:31 10° NNW
Meteor 2-2 Rocket 4.3 19:59:58 10° N 20:05:39 90° W 20:11:20 10° S
Cosmos 2322 Rocket 2.8 20:01:02 10° SSE 20:06:08 35° ESE 20:11:15 10° NE
SL-24 R/B 4.3 20:04:20 10° NNE 20:08:41 67° ESE 20:13:32 10° S
SL-16 R/B 2.6 20:05:56 10° S 20:11:14 43° ESE 20:16:35 10° NE
Lacrosse 5 4.5 20:12:53 10° WNW 20:16:37 20° NNW 20:20:22 10° NNE
ISS -2.8 20:15:17 10° SSW 20:18:07 26° SE 20:20:57 10° ENE
ERBS 3.2 20:16:56 10° WNW 20:20:05 41° SW 20:23:13 10° SSE
BREEZE-M DEB (TANK) 2.1 20:19:26 10° W 20:21:31 47° NNW 20:23:51 10° NE
DMSP B5D2-2 4.2 20:17:59 10° NNE 20:23:08 58° E 20:28:14 10° S
Resurs 01 Rocket 1.9 20:20:14 10° S 20:24:40 73° WSW 20:29:06 10° NNW
ARGOS 3.7 20:19:25 10° S 20:24:47 62° W 20:30:09 10° NNW
Cosmos 371 Rocket 3.5 20:20:35 10° NNW 20:25:28 72° WSW 20:30:18 10° S
Cosmos 1271 Rocket 4.0 20:25:03 10° SSW 20:28:47 45° WNW 20:32:36 10° N
EO 1 Del DPAF 4.2 20:26:07 10° NE 20:29:28 29° E 20:32:22 12° SSE
Cosmos 2251 Rocket 3.5 20:24:55 10° SSW 20:30:10 82° ESE 20:35:25 10° NNE
Cosmos 1844 Rocket 4.4 20:26:14 10° N 20:30:21 20° NE 20:34:27 10° E
Cosmos 2058 3.2 20:27:33 10° SSW 20:31:44 74° W 20:35:58 10° N
Cosmos 921 Rocket 3.8 20:29:09 10° N 20:33:06 36° ENE 20:36:15 15° SE
Lacrosse 5 rocket 4.4 20:32:01 10° NW 20:34:46 15° N 20:37:29 10° NNE
Cosmos 2263 Rocket 2.2 20:29:23 10° NNW 20:35:08 81° ENE 20:40:16 13° SSE
In-Cosmos 22 Rocket 4.2 20:29:54 10° S 20:35:11 62° E 20:40:39 10° NNE
Cosmos 332 Rocket 4.1 20:33:00 10° NNW 20:37:46 63° WSW 20:42:29 10° S
Iridium 4 Rocket 3.9 20:32:53 10° N 20:38:47 63° E 20:44:27 10° SSE
ERS-1 Rocket 3.7 20:37:31 15° SE 20:41:20 39° ENE 20:46:00 10° N
Cosmos 1072 Rocket 4.4 20:36:13 10° S 20:42:20 76° E 20:48:26 10° N
Cosmos 1151 Rocket 3.4 20:40:29 10° N 20:44:47 50° ENE 20:47:56 17° SSE
Terra 3.3 20:44:27 13° ESE 20:47:20 23° ENE 20:51:01 10° NNE
Cosmos 1892 2.7 20:44:53 11° S 20:48:35 62° E 20:52:23 10° NNE
Cosmos 304 Rocket 3.8 20:46:41 10° NNW 20:51:33 86° ENE 20:55:15 17° SSE
ADEOS Rocket 3.1 20:46:27 10° N 20:52:05 71° WNW 20:57:31 10° SSW
Cosmos 1328 Rocket 3.5 20:47:56 10° N 20:52:19 72° E 20:55:36 17° SSE
SL-4 R/B 3.3 20:49:01 10° S 20:52:58 25° SE 20:56:53 10° ENE
Cosmos 1461 3.5 20:49:26 10° NW 20:53:14 45° WSW 20:56:11 16° S
SPOT 1/Viking Rocket 3.9 20:51:34 18° SE 20:55:16 51° ENE 21:00:17 10° N
Cosmos 44 Rocket 3.3 20:50:39 10° SSW 20:55:45 67° ESE 21:00:47 10° NE
MetOp-B 4.2 20:51:46 12° S 20:56:51 78° WSW 21:02:14 10° NNW
Cosmos 1992 Rocket 4.0 20:54:25 10° NNW 20:59:42 87° WSW 21:03:37 18° SSE
Timation 1 Rocket 4.3 20:53:40 10° NNW 20:59:42 82° ENE 21:04:02 20° SSE
Cosmos 1242 Rocket 3.3 20:57:51 10° SSW 21:01:24 53° WNW 21:05:02 10° N
USA 215 4.5 20:55:18 10° NE 21:01:26 45° NNW 21:07:35 10° W
Cosmos 1500 Rocket 4.1 20:59:22 21° SSE 21:01:56 41° E 21:06:09 10° NNE
COSMOS 2428 4.2 21:01:40 16° ESE 21:02:34 16° E 21:06:00 10° ENE
Nadezhda 4 Rocket 4.1 20:56:33 10° N 21:02:49 63° E 21:07:22 19° SSE
CZ-2C R/B 3.9 20:59:22 10° S 21:04:39 50° W 21:09:43 10° NNW
Cosmos 2034 Rocket 4.0 20:58:43 10° S 21:04:55 75° E 21:11:12 10° N
Spot 2 Rocket 4.3 21:03:06 10° S 21:08:02 49° W 21:13:01 10° NNW
TIMED 4.4 21:07:02 10° SSW 21:11:22 79° ESE 21:15:46 10° NNE
Tiangong 2 1.2 21:13:19 10° W 21:16:23 52° SSW 21:16:58 43° SSE
Cosmos 1092 Rocket 4.2 21:13:48 10° N 21:19:58 56° ENE 21:23:30 25° SSE
Cosmos 2360 Rocket 2.1 21:14:32 10° SSW 21:20:07 67° ESE 21:25:44 10° NNE
DELTA 2 R/B (1) 3.9 21:14:56 10° SW 21:20:08 41° SSE 21:24:13 16° E
Cosmos 2151 4.4 21:18:49 10° SW 21:22:48 37° WNW 21:26:49 10° N
Cosmos 1743 Rocket 3.5 21:25:51 21° S 21:28:43 88° W 21:33:07 10° N
Cosmos 1933 3.3 21:25:02 10° N 21:29:05 65° E 21:30:29 38° SSE
SPOT 5 2.9 21:26:25 27° SSE 21:29:14 82° ENE 21:34:10 10° NNW
Cosmos 1606 3.2 21:29:21 10° N 21:32:59 43° ENE 21:33:43 38° ESE
USA 267 3.7 21:31:37 24° SSE 21:35:28 51° SW 21:41:51 10° WNW
Cosmos 1408 2.8 21:36:50 27° SSW 21:38:41 67° W 21:42:24 10° N
Cosmos 1515 Rocket 4.0 21:34:35 10° NNW 21:38:51 55° W 21:41:09 25° SSW
IGS 5A 3.7 21:37:07 31° S 21:39:00 65° WSW 21:43:10 10° NNW
Cosmos 1634 Rocket 4.1 21:37:16 27° SSE 21:40:41 61° E 21:46:49 10° NNE
USA 245 4.5 21:42:07 16° WSW 21:42:18 16° W 21:43:46 10° NW
Cosmos 676 Rocket 4.4 21:42:04 35° SE 21:43:31 43° ESE 21:48:27 10° NNE
NOSS 3-1 (C) 3.3 21:41:02 22° S 21:44:31 56° ESE 21:50:35 10° NE
CZ-2C R/B 3.4 21:39:36 10° N 21:44:39 50° WNW 21:49:38 10° SW
Meteor 2-3 Rocket 3.7 21:42:57 28° S 21:46:02 70° E 21:51:50 10° NNE
Cosmos 2333 4.3 21:47:24 31° S 21:49:59 56° ESE 21:55:32 10° NNE
Cosmos 2322 Rocket 3.7 21:44:52 10° WSW 21:50:07 37° WNW 21:55:24 10° N
Meteor 1-26 Rocket 4.1 21:44:41 10° N 21:50:22 77° E 21:52:42 36° SSE
Cosmos 2219 Rocket 2.7 21:49:56 35° SE 21:51:10 39° ESE 21:56:23 10° NE
ASTEX 1 3.7 21:46:29 10° NNE 21:51:23 52° E 21:52:47 40° SE
Cosmos 2333 Rocket 2.7 21:52:22 35° SE 21:53:37 40° ESE 21:58:54 10° NE
Cosmos 1805 Rocket 3.6 21:53:02 48° SSE 21:54:01 62° E 21:58:20 10° NNE
SL-8 R/B 4.0 21:49:46 10° WNW 21:54:31 64° NNE 21:57:03 27° E
Cosmos 2026 Rocket 3.9 21:48:27 10° N 21:54:32 71° E 21:57:11 35° SSE
ISS -2.7 21:51:26 10° WSW 21:54:40 46° NNW 21:57:54 10° NE
Cosmos 1825 2.6 21:53:35 33° SW 21:55:02 57° W 21:58:46 10° N
SL-16 R/B 4.1 21:50:31 10° WSW 21:55:29 30° NW 22:00:28 10° N
Cosmos 2278 Rocket 3.8 21:53:29 10° N 21:58:07 25° NE 22:01:04 17° E
Cosmos 1954 Rocket 4.1 21:57:21 41° SSE 21:58:47 54° ESE 22:03:55 10° NNE
Cosmos 2228 Rocket 3.8 21:55:00 10° NNW 21:59:23 49° W 22:01:22 29° SSW
Cosmos 2195 Rocket 4.5 21:54:43 10° N 22:01:04 89° WSW 22:04:04 34° S
Lacrosse 5 4.5 21:57:50 10° NW 22:01:16 18° N 22:04:42 10° NE
Cosmos 2322 3.7 22:02:23 20° SSW 22:06:22 85° WNW 22:12:04 10° NNE
USA 81 4.2 22:02:07 10° N 22:07:21 67° W 22:09:37 34° SSW
Cosmos 407 Rocket 3.9 22:05:36 16° SW 22:09:46 62° WNW 22:15:05 10° NNE
Cosmos 1140 Rocket 3.4 22:08:25 35° SSW 22:10:41 89° ESE 22:15:55 10° NNE
MOS 1 Rocket 3.3 22:08:42 10° N 22:13:10 76° WNW 22:14:49 40° SSW
ALOS 2 4.5 22:12:21 17° E 22:13:16 18° ENE 22:16:16 10° NNE
Cosmos 1666 Rocket 3.7 22:13:53 54° ESE 22:14:17 56° E 22:18:41 10° NNE
BREEZE-M DEB (TANK) 4.2 22:12:31 10° WNW 22:14:23 22° N 22:16:00 13° NE
Cosmos 1190 Rocket 4.4 22:11:12 19° SW 22:14:51 61° WNW 22:20:01 10° NNE
Cosmos 1844 Rocket 2.7 22:09:11 10° NNW 22:14:52 74° WSW 22:16:43 44° S
Lacrosse 5 rocket 4.2 22:12:30 10° NNW 22:15:35 17° NNE 22:18:36 10° ENE
Cosmos 1633 Rocket 3.3 22:17:27 48° E 22:17:31 48° E 22:21:42 10° NNE
Cosmos 2263 Rocket 4.5 22:15:19 10° WNW 22:18:16 15° W 22:21:14 10° SW
Mayak -0.8 22:14:57 10° NNE 22:18:55 47° E 22:18:55 47° E
USA 229 DEB 3.8 22:15:03 10° SW 22:21:37 72° NW 22:28:32 10° NNE
USA 229 3.8 22:15:09 10° SW 22:21:43 72° NW 22:28:38 10° NNE
Cosmos 292 Rocket 3.9 22:16:58 10° NNW 22:21:46 64° WSW 22:22:48 50° SSW
IRAS Rocket 4.2 22:20:03 45° S 22:21:53 82° WSW 22:27:32 10° NNW
GP-B 4.5 22:19:51 10° NNE 22:23:31 26° E 22:23:31 26° E
NOSS 3-1 (A) 3.2 22:22:47 40° SSW 22:24:48 70° ESE 22:31:05 10° NE
Terra 2.6 22:23:20 33° SW 22:24:49 42° W 22:29:21 10° NNW
ARGOS Delta rocket 4.5 22:27:58 36° E 22:28:25 37° ENE 22:32:34 10° N
Cosmos 1862 Rocket 4.2 22:27:03 10° N 22:31:09 40° ENE 22:31:16 40° E
Cosmos 1782 2.7 22:27:25 10° N 22:31:28 77° W 22:31:34 76° WSW
SL-4 R/B 2.5 22:27:33 10° WSW 22:32:24 76° NNW 22:37:09 10° NE
BREEZE-M DEB (TANK) 3.2 22:28:23 10° WSW 22:32:26 78° NNW 22:39:44 10° ENE
Meteor 1-10 Rocket 4.3 22:28:23 10° N 22:34:00 67° ENE 22:35:22 50° SE
Cosmos 1470 Rocket 4.3 22:34:20 38° E 22:34:20 38° E 22:38:05 10° NNE
Spot 4 3.8 22:33:22 59° SE 22:34:06 70° ENE 22:38:52 10° N
ATLAS CENTAUR R/B 3.3 22:31:21 10° NNW 22:35:19 26° NE 22:37:09 20° ENE
Helios 1B rocket 3.7 22:31:53 10° NNE 22:34:48 29° ENE 22:34:48 29° ENE
NOSS 2-3 (E) 4.3 22:37:18 42° E 22:37:18 42° E 22:41:19 10° NE
Cosmos 1862 3.8 22:38:08 49° ENE 22:38:08 49° ENE 22:41:32 10° NNE
Sich 1 3.3 22:37:16 53° WSW 22:37:56 60° W 22:42:11 10° N
NOSS 2-3 (D) 4.3 22:40:07 41° E 22:40:07 41° E 22:44:01 10° NE
Cosmos 1400 Rocket 4.3 22:37:18 10° NNE 22:40:48 27° ENE 22:40:48 27° ENE
SeaSat 1 3.0 22:37:43 10° NE 22:42:01 41° E 22:42:01 41° E
Cosmos 2266 Rocket 4.2 22:38:19 10° N 22:44:37 58° ENE 22:46:19 44° SE
Cosmos 1763 Rocket 4.5 22:40:37 10° N 22:45:22 35° ENE 22:46:39 31° E
Cosmos 1812 4.2 22:42:26 10° NNE 22:45:24 28° ENE 22:45:24 28° ENE
COSMOS 2428 2.8 22:43:37 35° SW 22:46:08 74° WNW 22:51:53 10° NNE
SL-16 R/B 4.0 22:48:07 17° E 22:48:07 17° E 22:51:02 10° ENE
COSMOS 2455 4.0 22:48:25 26° E 22:48:25 26° E 22:52:49 10° NE
Cosmos 2084 Rocket 3.5 22:44:06 10° NW 22:48:15 70° W 22:48:15 70° W
ERS-2 4.3 22:48:35 17° ENE 22:48:35 17° ENE 22:50:59 10° NNE
Cosmos 1844 4.2 22:46:09 10° NW 22:51:31 47° WSW 22:52:37 41° SW
Cosmos 2279 Rocket 4.3 22:51:51 35° SW 22:54:24 61° W 23:00:33 10° N
Meteor 2-6 Rocket 4.1 22:49:41 10° NNW 22:55:07 75° W 22:56:11 57° SSW
Cosmos 1818 3.5 22:49:48 10° NW 22:55:15 68° WSW 22:55:56 61° SSW
Cosmos 1980 3.7 22:56:55 57° SE 22:57:24 59° ESE 23:02:59 10° NNE
Cosmos 2360 Rocket 4.4 23:00:24 10° W 23:04:38 21° NW 23:08:54 10° N
Cosmos 2237 Rocket 2.1 23:04:36 61° SE 23:05:02 63° ESE 23:10:36 10° NNE
DELTA 2 R/B (1) 3.9 23:00:43 10° WSW 23:05:00 49° SW 23:05:00 49° SW
Cosmos 1570 Rocket 4.1 23:05:21 10° NNW 23:10:33 62° ENE 23:11:15 56° ESE
Cosmos 1867 3.5 23:16:23 58° SW 23:17:29 83° NW 23:23:01 10° NNE
Cosmos 1607 4.5 23:14:48 10° NW 23:20:31 41° WSW 23:21:10 40° SW
Helios 1A 4.2 23:22:03 33° W 23:22:03 33° W 23:25:32 10° NNW
NOSS 2-3 (C) 3.8 23:21:21 67° W 23:21:47 73° NW 23:26:57 10° NNE
Meteor 1-27 Rocket 3.8 23:18:42 10° NNW 23:24:36 78° W 23:25:36 62° SSW
Cosmos 1633 3.9 23:26:51 36° NW 23:26:51 36° NW 23:29:31 10° N
Cosmos 1814 Rocket 4.3 23:26:40 10° NNW 23:31:44 54° ENE 23:32:22 51° E
ISS -1.0 23:29:24 10° NW 23:31:56 20° N 23:34:28 10° NE
Cosmos 1741 Rocket 4.5 23:32:52 46° WSW 23:33:58 55° WNW 23:39:06 10° NNE
Cosmos 2297 4.5 23:29:34 10° NNW 23:34:58 44° ENE 23:36:42 34° E
Cosmos 2219 Rocket 3.6 23:31:35 18° WSW 23:35:09 34° NW 23:40:17 10° N
NOSS 0 Rocket 4.2 23:35:29 39° SW 23:37:41 62° WNW 23:43:49 10° NNE
Cosmos 2333 Rocket 3.6 23:34:19 17° WSW 23:37:57 33° NW 23:43:04 10° N
Cosmos 2242 Rocket 4.1 23:33:34 10° NNW 23:37:46 52° W 23:37:46 52° W
Cosmos 2278 Rocket 2.3 23:37:01 10° NNW 23:42:33 56° WSW 23:42:53 55° WSW
SL-19 R/B 4.3 23:43:34 60° SE 23:44:32 75° ENE 23:50:21 10° NNW
Cosmos 1703 Rocket 3.7 23:40:35 10° N 23:44:40 75° NNW 23:44:40 75° NNW
Lacrosse 5 3.2 23:40:47 10° NW 23:45:30 37° NNE 23:48:50 18° E
Cosmos 1943 Rocket 4.4 23:44:56 10° N 23:48:45 19° NE 23:52:35 10° E
Spot 1 4.4 23:48:45 69° WSW 23:48:55 69° WSW 23:53:58 10° NNW
ATLAS 5 CENTAUR R/B 4.0 23:44:02 10° NNW 23:48:58 29° NE 23:54:26 10° E
ALOS 2 3.4 23:49:45 43° WNW 23:49:45 43° WNW 23:53:28 10° NNW
Cosmos 192 4.3 23:47:23 10° NNW 23:52:19 71° ENE 23:52:29 70° E
Cosmos 2221 Rocket 4.3 23:48:31 10° N 23:52:49 44° ENE 23:52:49 44° ENE
Mayak 1.1 23:51:33 10° NNW 23:54:16 17° WNW 23:55:30 15° W
